Tracking 28794 objects as of 19-Apr-2024
HD Live streaming from Space Station
objects crossing your sky now

THORAD AGENA D DEB

Track THORAD AGENA D DEB now!
10-day predictions


NORAD ID: 4615
Int'l Code: 1970-025T
Perigee: 956.2 km
Apogee: 1,043.0 km
Inclination: 100.1 °
Period: 105.0 minutes
Semi major axis: 7370 km
RCS: 0.2422 m2 (medium)
Launch date: April 8, 1970
Source: United States (US)
Launch site: AIR FORCE WESTERN TEST RANGE (AFWTR)

Note: This is SATELLITE DEBRIS
Your satellite tracking list
Your tracking list is empty




NASA's NSSDC Master Catalog

Two Line Element Set (TLE):
1 04615U 70025T   24110.22626715  .00000638  00000-0  74858-3 0  9991
2 04615 100.1270 184.7075 0058911 317.3555 112.5782 13.71983832694419
Source of the keplerian elements: AFSPC